Weather History for KLAL - August, 2013

Change the Weather History Date:

Wednesday, August 21, 2013

  Actual Average Record
Temperature  
Mean Temperature 83 °F -  
Max Temperature 93 °F 88 °F 95 °F (2011)
Min Temperature 73 °F 72 °F 69 °F (2012)
Cooling Degree Days 18    
Growing Degree Days 33 (Base 50)    
Moisture  
Dew Point 72 °F    
Average Humidity 83    
Maximum Humidity 100    
Minimum Humidity 49    
Precipitation  
Precipitation 0.00 in - - ()
Sea Level Pressure  
Sea Level Pressure 30.08 in    
Wind  
Wind Speed 5 mph (ENE)    
Max Wind Speed 31 mph    
Max Gust Speed 59 mph    
Visibility 12 miles    
Events Rain , Thunderstorm    
Averages and records for this station are not official NWS values.
T = Trace of Precipitation, MM = Missing Value Source: NWS Daily Summary

Daily Weather History Graph

Daily Weather History Graph

Search for Another Location

Airport or City:

Trip Planner

Search our weather history database for the weather conditions in past years. The results will help you decide how hot, cold, wet, or windy it might be!

Date:

Astronomy

Aug. 21, 2013 Rise Set
Actual Time 7:01 AM EDT 8:00 PM EDT
Civil Twilight 6:37 AM EDT 8:24 PM EDT
Nautical Twilight 6:08 AM EDT 8:53 PM EDT
Astronomical Twilight 5:38 AM EDT 9:22 PM EDT
Moon 8:19 PM EDT (8/21) 7:31 AM EDT (8/21)
Length of Visible Light 13h 47m
Length of Day
12h 59m
Full, 100% of the Moon is Illuminated
Aug 21
Full
Aug 28
Last Quarter
Sep 5
New
Sep 12
First Quarter
Sep 19
Full

Hourly Weather History & Observations

Time (EDT) Temp. Heat Index Dew Point Humidity Pressure Visibility Wind Dir Wind Speed Gust Speed Precip Events Conditions
12:15 AM 75.2 °F - 71.6 °F 89% 30.10 in 10.0 mi NNE 4.6 mph - N/A   Clear
12:35 AM 75.2 °F - 73.4 °F 94% 30.10 in 10.0 mi NNE 3.5 mph - N/A   Clear
12:55 AM 75.2 °F - 73.4 °F 94% 30.10 in 10.0 mi NNE 3.5 mph - N/A   Clear
1:15 AM 75.2 °F - 73.4 °F 94% 30.10 in 10.0 mi Calm Calm - N/A   Clear
1:35 AM 73.4 °F - 73.4 °F 100% 30.11 in 10.0 mi Calm Calm - N/A   Clear
1:55 AM 75.2 °F - 73.4 °F 94% 30.10 in 10.0 mi Calm Calm - N/A   Clear
2:15 AM 75.2 °F - 73.4 °F 94% 30.10 in 10.0 mi NE 3.5 mph - N/A   Clear
2:35 AM 75.2 °F - 73.4 °F 94% 30.09 in 10.0 mi North 3.5 mph - N/A   Clear
2:55 AM 75.2 °F - 73.4 °F 94% 30.08 in 10.0 mi NE 4.6 mph - N/A   Clear
3:15 AM 75.2 °F - 73.4 °F 94% 30.08 in 10.0 mi ENE 3.5 mph - N/A   Clear
3:35 AM 75.2 °F - 73.4 °F 94% 30.08 in 10.0 mi East 3.5 mph - N/A   Clear
3:55 AM 77.0 °F - 73.4 °F 89% 30.08 in 10.0 mi East 5.8 mph - N/A   Clear
4:15 AM 77.0 °F - 73.4 °F 89% 30.07 in 10.0 mi East 8.1 mph - N/A   Clear
4:35 AM 77.0 °F - 73.4 °F 89% 30.06 in 10.0 mi East 5.8 mph - N/A   Clear
4:55 AM 77.0 °F - 73.4 °F 89% 30.06 in 10.0 mi East 6.9 mph - N/A   Clear
5:15 AM 77.0 °F - 73.4 °F 89% 30.06 in 10.0 mi East 5.8 mph - N/A   Clear
5:35 AM 77.0 °F - 73.4 °F 89% 30.06 in 10.0 mi East 5.8 mph - N/A   Clear
5:55 AM 77.0 °F - 73.4 °F 89% 30.07 in 10.0 mi East 5.8 mph - N/A   Clear
6:15 AM 77.0 °F - 73.4 °F 89% 30.08 in 10.0 mi East 6.9 mph - N/A   Clear
6:35 AM 77.0 °F - 73.4 °F 89% 30.08 in 10.0 mi East 6.9 mph - N/A   Clear
6:57 AM 77.0 °F - 73.4 °F 89% 30.09 in 12.0 mi East 5.8 mph - N/A   Scattered Clouds
7:50 AM 77.0 °F - 75.2 °F 94% 30.09 in 10.0 mi East 6.9 mph - N/A   Scattered Clouds
8:50 AM 80.6 °F 86.2 °F 75.2 °F 84% 30.11 in 12.0 mi East 6.9 mph - N/A   Scattered Clouds
9:52 AM 84.2 °F 92.3 °F 75.2 °F 74% 30.12 in 15.0 mi East 8.1 mph - N/A   Mostly Cloudy
10:50 AM 86.0 °F 93.4 °F 73.4 °F 66% 30.13 in 15.0 mi East 10.4 mph - N/A   Mostly Cloudy
11:51 AM 87.8 °F 95.6 °F 73.4 °F 62% 30.12 in 20.0 mi East 11.5 mph 17.3 mph N/A   Mostly Cloudy
12:50 PM 89.6 °F 96.2 °F 71.6 °F 55% 30.10 in 20.0 mi East 10.4 mph - N/A   Mostly Cloudy
1:50 PM 91.4 °F 98.4 °F 71.6 °F 52% 30.08 in 15.0 mi East 9.2 mph - N/A   Mostly Cloudy
2:50 PM 93.2 °F 100.5 °F 71.6 °F 49% 30.06 in 20.0 mi East 9.2 mph 16.1 mph N/A   Mostly Cloudy
3:48 PM 82.4 °F 83.4 °F 62.6 °F 51% 30.09 in 20.0 mi ESE 31.1 mph 58.7 mph N/A Rain , Thunderstorm Light Thunderstorms and Rain
4:33 PM 73.4 °F - 66.2 °F 78% 30.03 in 20.0 mi Calm Calm - N/A   Overcast
4:50 PM 75.2 °F - 66.2 °F 73% 30.04 in 20.0 mi ENE 6.9 mph - N/A   Overcast
5:50 PM 77.0 °F - 69.8 °F 78% 30.06 in 20.0 mi NE 11.5 mph - N/A   Overcast
6:50 PM 77.0 °F - 73.4 °F 89% 30.08 in 15.0 mi NNE 8.1 mph - N/A   Overcast
7:50 PM 77.0 °F - 73.4 °F 89% 30.07 in 10.0 mi ENE 9.2 mph - N/A   Overcast
8:50 PM 77.0 °F - 69.8 °F 78% 30.08 in 10.0 mi East 6.9 mph - N/A   Overcast
9:50 PM 77.0 °F - 71.6 °F 83% 30.09 in 10.0 mi East 5.8 mph - N/A   Mostly Cloudy
10:55 PM 78.8 °F - 71.6 °F 78% 30.09 in 10.0 mi East 6.9 mph - N/A   Scattered Clouds
11:15 PM 77.0 °F - 71.6 °F 83% 30.09 in 10.0 mi East 6.9 mph - N/A   Scattered Clouds
11:35 PM 77.0 °F - 73.4 °F 89% 30.10 in 10.0 mi East 6.9 mph - N/A   Clear
11:55 PM 77.0 °F - 73.4 °F 89% 30.10 in 10.0 mi East 8.1 mph - N/A   Clear